User: anonymous   Login
Location: San Antonio
(29.4240°N, 98.4930°W)
Time: 08:08:54
(UTC-05:00)
Language:

Explorer 11/Cluster Stage 4 - Orbit

View from above orbital plane
View from above orbital plane
View from above satellite
View from above satellite

Ground track
Ground track

The orbit data is extracted from the following two-line orbital elements,

1 00107U 61013A   24200.78825621  .00009939  00000-0  12629-2 0  9998
2 00107  28.7871   6.9624 0519804 112.2572 253.3950 14.15668006177174
Epoch (UTC): 18 July 2024 18:55:05
Eccentricity: 0.0519804
inclination: 28.7871°
perigee height: 465 km
apogee height: 1215 km
right ascension of ascending node: 6.9624°
argument of perigee: 112.2572°
revolutions per day: 14.15668006
mean anomaly at epoch: 253.3950°
orbit number at epoch: 17717

The dashed part of the orbit path shows where the satellite is in the earth's shadow,  

DLR